STARLINK-33671, 63320

Orbit data source: Space-Track

STARLINK-33671, 63320 is a payload satellite owned by SpaceX/Seattle (US) in LEO that was launched on Tue, 18 Mar 2025 UTC via an FALCON 9 launch vehicle from the Air Force Eastern Test Range (AFETR). Payload-class satellites include a variety of spacecraft equipped with specific instruments for various scientific and technological missions. These include communications satellites like Starlink; space stations such as the ISS; scientific satellites like the Hubble; Earth observation satellites from companies like Planet Labs, Umbra, and HawkEye 360; GPS; miniature CubeSats for education and research; and military/defense satellites.

Loading next visibility...
Identifier
63320, 2025-057P
Orbit
LEO
Country
Flag of USUS
Related business
Manufacturer
SpaceX/Seattle
Mission
Operational Commercial Communications
Bus & Motor
STARLINK V2MO, Unknown motor
Mass
575 kg wet, ~530 kg dry
Launch date (UTC)
2025-03-18 (1 year ago)
Launch vehicle
FALCON 9
Launch site
Air Force Eastern Test Range (AFETR)
Object type
Payload
Rocket body
Debris
Shape & HBR
Box + 1 Pan, 17.7 m
Radar Cross Section
41.120 m², Large (>1 m²)

Expand to show TLE details & history
Last TLE update: 11 hours ago

TLE from 11 hours ago
0 STARLINK-33671
1 63320U 25057P   26257.41631754  .00019487  00000-0  71574-3 0  9992
2 63320  43.0016  34.3864 0001592 280.8794  79.1879 15.27583063 84769
Epoch: 2026-09-14T09:59Z
TLE epoch observation values (Epoch: 2026-09-14T09:59:29.835Z)
Latitude
0.00002°
Longitude
-108.88482°
Altitude
482.611 km
Speed
7.626 km/s
True Right ascension
02h 17m 32s
True Declination
0° 00' 00"
Sunlit
Object was in full shadow at epoch
Visualization orbit readout
Latitude
Unknown
Longitude
Unknown
Altitude
Unknown
Speed
Unknown
Apparent Right ascension
Unknown
Apparent Declination
Unknown
Sunlit
N/A
Visualization observer readout
Local Sidereal Time
13:26:23
Azimuth
Unknown
Elevation
Unknown
Doppler factor
Unknown
Orbital elements
Apogee altitude
486.077 km
Perigee altitude
483.892 km
Semi-major axis
6,863.122 km
Eccentricity
0.00016
Inclination
43.0016°
RAAN
34.3864°
Arg. of periapsis
280.8794°
True anomaly
79.20582°
Mean anomaly
79.1879°
Eccentric anomaly
79.19686°
Mean motion
3.81734 °/min
Orbital period
94.31 mins
BSTAR
0.00071574
Loading maneuver chart data...
Computing Atmospheric mass density...
Loading historical data...
Loading historical data...
Loading historical data...
Loading historical data...
Loading historical data...
Loading historical data...
Loading historical data...

Documentation

Showing up to 5 results
|